Ainsworth, NE

1:30 PM CDT on October 21, 2019 (GMT -0500)
Ainsworth Municipal

Weather History for KANW - August, 2019

Change the Weather History Date:

Monday, August 19, 2019

  Actual Average Record
Temperature  
Mean Temperature 72 °F -  
Max Temperature 86 °F 83 °F 93 °F (1998)
Min Temperature 59 °F 58 °F 41 °F (2004)
Cooling Degree Days 8    
Growing Degree Days 22 (Base 50)    
Moisture  
Dew Point 68 °F    
Average Humidity 87    
Maximum Humidity 100    
Minimum Humidity 63    
Precipitation  
Precipitation 0.00 in - - ()
Sea Level Pressure  
Sea Level Pressure 29.95 in    
Wind  
Wind Speed 9 mph ()    
Max Wind Speed 17 mph    
Max Gust Speed 23 mph    
Visibility 10.0 miles    
Events      
Averages and records for this station are not official NWS values.
T = Trace of Precipitation, MM = Missing Value Source: Averaged Metar Reports

Daily Weather History Graph

Daily Weather History Graph

Search for Another Location

Airport or City:

Astronomy

Aug. 19, 2019 Rise Set
Actual Time 6:50 AM CDT 8:35 PM CDT
Civil Twilight 6:20 AM CDT 9:05 PM CDT
Nautical Twilight 5:44 AM CDT 9:41 PM CDT
Astronomical Twilight 5:04 AM CDT 10:21 PM CDT
Moon 10:52 PM CDT (8/19) 10:38 AM CDT (8/19)
Length of Visible Light 14h 44m
Length of Day
13h 44m
Waning Gibbous, 85% of the Moon is Illuminated
Aug 19
Waning Gibbous
Aug 23
Last Quarter
Aug 30
New
Sep 5
First Quarter
Sep 13
Full

Hourly Weather History & Observations

Time (CDT) Temp. Heat Index Dew Point Humidity Pressure Visibility Wind Dir Wind Speed Gust Speed Precip Events Conditions
12:15 AM 61.7 °F - 61.7 °F 100% 29.98 in 10.0 mi SSE 6.9 mph - N/A   Clear
12:35 AM 61.3 °F - 61.3 °F 100% 29.98 in 10.0 mi SSE 5.8 mph - N/A   Clear
12:55 AM 61.5 °F - 61.5 °F 100% 29.98 in 10.0 mi SSE 5.8 mph - N/A   Clear
1:15 AM 61.7 °F - 61.7 °F 100% 29.98 in 10.0 mi SSE 5.8 mph - N/A   Clear
1:35 AM 60.3 °F - 60.3 °F 100% 29.98 in 10.0 mi SSE 5.8 mph - N/A   Clear
1:55 AM 59.9 °F - 59.9 °F 100% 29.98 in 10.0 mi SSE 4.6 mph - N/A   Clear
2:15 AM 60.3 °F - 60.3 °F 100% 29.98 in 10.0 mi SSE 6.9 mph - N/A   Clear
2:35 AM 60.4 °F - 60.4 °F 100% 29.99 in 10.0 mi South 6.9 mph - N/A   Clear
2:55 AM 60.4 °F - 60.4 °F 100% 29.99 in 10.0 mi South 6.9 mph - N/A   Clear
3:15 AM 60.8 °F - 60.8 °F 100% 29.99 in 10.0 mi South 6.9 mph - N/A   Clear
3:35 AM 60.4 °F - 60.4 °F 100% 29.99 in 10.0 mi South 8.1 mph - N/A   Clear
3:55 AM 61.2 °F - 61.2 °F 100% 29.99 in 10.0 mi South 9.2 mph - N/A   Mostly Cloudy
4:15 AM 61.2 °F - 61.2 °F 100% 29.99 in 10.0 mi South 6.9 mph - N/A   Scattered Clouds
4:35 AM 61.7 °F - 61.7 °F 100% 29.99 in 10.0 mi South 6.9 mph - N/A   Scattered Clouds
4:55 AM 61.7 °F - 61.7 °F 100% 29.99 in 10.0 mi SSE 8.1 mph - N/A   Mostly Cloudy
5:15 AM 61.9 °F - 61.9 °F 100% 29.99 in 10.0 mi South 8.1 mph - N/A   Overcast
5:35 AM 62.6 °F - 62.6 °F 100% 29.98 in 10.0 mi SSE 8.1 mph - N/A   Overcast
5:55 AM 62.6 °F - 62.6 °F 100% 29.98 in 10.0 mi South 9.2 mph - N/A   Overcast
6:15 AM 62.6 °F - 62.6 °F 100% 29.99 in 10.0 mi South 11.5 mph - N/A   Overcast
6:35 AM 62.8 °F - 62.8 °F 100% 29.99 in 10.0 mi South 9.2 mph - N/A   Overcast
6:55 AM 63.5 °F - 63.5 °F 100% 29.99 in 10.0 mi South 10.4 mph - N/A   Overcast
7:15 AM 63.5 °F - 63.5 °F 100% 29.99 in 10.0 mi South 11.5 mph - N/A   Overcast
7:35 AM 63.9 °F - 63.9 °F 100% 29.99 in 10.0 mi South 10.4 mph - N/A   Mostly Cloudy
7:55 AM 64.8 °F - 64.8 °F 100% 29.98 in 10.0 mi South 11.5 mph 16.1 mph N/A   Mostly Cloudy
8:15 AM 64.4 °F - 64.4 °F 100% 29.98 in 10.0 mi South 12.7 mph - N/A   Overcast
8:35 AM 64.9 °F - 64.9 °F 100% 29.98 in 10.0 mi South 13.8 mph - N/A   Scattered Clouds
8:55 AM 66.6 °F - 65.5 °F 96% 29.97 in 10.0 mi South 16.1 mph - N/A   Clear
9:15 AM 68.2 °F - 66.6 °F 95% 29.98 in 10.0 mi South 17.3 mph 23.0 mph N/A   Scattered Clouds
9:35 AM 68.9 °F - 67.6 °F 96% 29.98 in 10.0 mi South 16.1 mph 21.9 mph N/A   Mostly Cloudy
9:55 AM 68.9 °F - 67.5 °F 95% 29.98 in 10.0 mi South 16.1 mph 20.7 mph N/A   Overcast
10:15 AM 69.1 °F - 68.2 °F 97% 29.98 in 10.0 mi South 11.5 mph - N/A   Overcast
10:35 AM 71.6 °F - 69.1 °F 92% 29.97 in 10.0 mi South 13.8 mph - N/A   Overcast
10:55 AM 73.8 °F - 68.9 °F 85% 29.97 in 10.0 mi SSW 13.8 mph - N/A   Scattered Clouds
11:15 AM 76.1 °F - 69.1 °F 79% 29.97 in 10.0 mi South 13.8 mph 18.4 mph N/A   Scattered Clouds
11:35 AM 77.7 °F - 69.4 °F 76% 29.96 in 10.0 mi South 13.8 mph 19.6 mph N/A   Clear
11:55 AM 78.6 °F - 69.6 °F 74% 29.96 in 10.0 mi SSW 15.0 mph 21.9 mph N/A   Mostly Cloudy
12:15 PM 77.9 °F - 70.0 °F 76% 29.97 in 10.0 mi South 12.7 mph - N/A   Overcast
12:35 PM 79.2 °F - 70.5 °F 75% 29.96 in 10.0 mi South 10.4 mph 16.1 mph N/A   Overcast
12:55 PM 79.7 °F - 70.7 °F 74% 29.96 in 10.0 mi South 12.7 mph 17.3 mph N/A   Overcast
1:15 PM 79.5 °F - 70.5 °F 74% 29.96 in 10.0 mi SSW 12.7 mph - N/A   Overcast
1:55 PM 79.7 °F - 70.9 °F 74% 29.95 in 10.0 mi South 11.5 mph - N/A   Overcast
2:15 PM 82.4 °F 87.0 °F 71.2 °F 69% 29.94 in 10.0 mi South 13.8 mph - N/A   Overcast
2:35 PM 81.9 °F 86.4 °F 71.8 °F 71% 29.94 in 10.0 mi SSW 15.0 mph 18.4 mph N/A   Overcast
2:55 PM 82.6 °F 87.3 °F 71.6 °F 69% 29.93 in 10.0 mi SSW 13.8 mph 18.4 mph N/A   Overcast
3:15 PM 83.1 °F 88.6 °F 72.5 °F 70% 29.92 in 10.0 mi SSW 13.8 mph 18.4 mph N/A   Mostly Cloudy
3:35 PM 85.1 °F 91.5 °F 72.7 °F 66% 29.91 in 10.0 mi South 13.8 mph 20.7 mph N/A   Scattered Clouds
3:55 PM 85.1 °F 91.5 °F 72.5 °F 66% 29.91 in 10.0 mi South 16.1 mph 19.6 mph N/A   Mostly Cloudy
4:15 PM 84.9 °F 91.4 °F 72.7 °F 67% 29.90 in 10.0 mi SSW 13.8 mph - N/A   Mostly Cloudy
4:35 PM 86.0 °F 92.6 °F 72.3 °F 64% 29.90 in 10.0 mi SW 11.5 mph - N/A   Scattered Clouds
4:55 PM 86.0 °F 92.6 °F 72.5 °F 64% 29.90 in 10.0 mi South 16.1 mph 20.7 mph N/A   Scattered Clouds
5:15 PM 86.0 °F 92.6 °F 72.7 °F 64% 29.90 in 10.0 mi SSW 16.1 mph - N/A   Clear
5:35 PM 85.1 °F 90.4 °F 71.4 °F 63% 29.90 in 10.0 mi South 13.8 mph - N/A   Clear
5:55 PM 84.9 °F 90.7 °F 72.0 °F 65% 29.90 in 10.0 mi South 13.8 mph 19.6 mph N/A   Clear
6:15 PM 84.4 °F 89.7 °F 71.4 °F 65% 29.90 in 10.0 mi SSW 15.0 mph 18.4 mph N/A   Clear
6:35 PM 84.6 °F 89.4 °F 70.9 °F 63% 29.90 in 10.0 mi SSW 13.8 mph - N/A   Clear
6:55 PM 84.4 °F 89.7 °F 71.4 °F 65% 29.89 in 10.0 mi SSW 10.4 mph 18.4 mph N/A   Clear
7:15 PM 83.7 °F 89.4 °F 72.3 °F 69% 29.89 in 10.0 mi SSW 10.4 mph - N/A   Clear
7:35 PM 82.9 °F 88.3 °F 72.3 °F 70% 29.89 in 10.0 mi SSW 11.5 mph - N/A   Clear
7:55 PM 81.9 °F 86.8 °F 72.5 °F 73% 29.89 in 10.0 mi SSW 9.2 mph - N/A   Clear
8:15 PM 80.4 °F 84.7 °F 72.7 °F 77% 29.90 in 10.0 mi SSW 8.1 mph - N/A   Clear
8:35 PM 78.6 °F - 73.9 °F 85% 29.90 in 10.0 mi SSW 9.2 mph - N/A   Clear
8:55 PM 77.9 °F - 74.1 °F 88% 29.90 in 10.0 mi SSW 8.1 mph - N/A   Clear
9:15 PM 78.1 °F - 74.1 °F 88% 29.91 in 10.0 mi SSW 10.4 mph - N/A   Clear
9:35 PM 77.0 °F - 74.3 °F 91% 29.92 in 10.0 mi SSW 9.2 mph - N/A   Clear
9:55 PM 76.8 °F - 74.5 °F 92% 29.92 in 10.0 mi SSW 11.5 mph 16.1 mph N/A   Clear
10:15 PM 76.3 °F - 74.5 °F 94% 29.94 in 10.0 mi SSW 9.2 mph - N/A   Clear
10:35 PM 76.1 °F - 74.5 °F 95% 29.94 in 10.0 mi SSW 11.5 mph - N/A   Clear
10:55 PM 75.2 °F - 74.7 °F 98% 29.94 in 10.0 mi SSW 10.4 mph - N/A   Clear
11:15 PM 75.6 °F - 75.2 °F 99% 29.94 in 10.0 mi SW 9.2 mph - N/A   Clear
11:30 PM 75.0 °F - 74.8 °F 99% 29.94 in 10.0 mi SSW 10.4 mph - N/A   Clear
11:55 PM 74.1 °F - 74.1 °F 100% 29.94 in 10.0 mi SSW 9.2 mph - N/A   Clear